Other Public Products
Issued by NWS Grand Forks, ND

Home | Current Version | Previous Version | Text Only | Print | Product List | Glossary Off
Versions: 1 2 3 4 5 6 7 8 9 10 11 12 13 14 15 16 17 18 19 20 21 22 23 24 25 26 27 28 29 30 31 32 33 34 35 36 37 38 39 40 41 42 43 44 45 46 47 48 49 50

000
FPUS83 KFGF 291910
OPUFGF
PRAIRIE TO PINES WEATHER ROUNDUP
NATIONAL WEATHER SERVICE EASTERN NORTH DAKOTA/GRAND FORKS ND
200 PM CDT MON MAY 29 2017

 **SATELLITE DATA USED TO AUGMENT SKY COVER AT AUTOMATED STATIONS**
 *****  WEATHER ACROSS EASTERN NORTH DAKOTA  *****

CITY           SKY/WX    TMP DP  RH WIND       PRES   REMARKS
GRAND FORKS    LGT RAIN  56  48  74 NW17G24   29.87R
GRAND FORKS AF PTSUNNY   55  50  82 N13G21    29.88R
GRAND CITY NWS NOT AVBL
BUXTON         NOT AVBL
DEVILS LAKE    LGT RAIN  50  44  80 NW13G32   29.93R
FARGO          CLOUDY    59  48  67 NW12G23   29.88F
WAHPETON ARPT  CLOUDY    59  45  58 NW21      29.91S
$$

 *****  WEATHER ACROSS CENTRAL AND WESTERN NORTH DAKOTA  *****

CITY           SKY/WX    TMP DP  RH WIND       PRES   REMARKS
JAMESTOWN      NOT AVBL
BISMARCK       CLOUDY    63  38  39 NW21G29   30.04S
MINOT          CLOUDY    60  39  45 NW21G30   29.99F
MINOT AFB      PTSUNNY   61  39  44 NW24G35   29.98F
GARRISON         N/A     62  37  39 NW24G39   30.01F
WILLISTON      PTSUNNY   66  34  30 NW18      30.10F
DICKINSON      PTSUNNY   62  33  33 NW22G31   30.08S
HETTINGER      PTSUNNY   64  34  32 NW21G32   30.11F
$$

 *****  OTHER OBSERVATIONS NORTHEAST NORTH DAKOTA  *****

CITY           SKY/WX    TMP DP  RH WIND       PRES   REMARKS
WALHALLA       NOT AVBL
LANGDON        MOCLDY    54  50  87 NW21G26   29.89R
CAVALIER       CLOUDY    54  45  71 N16G26    29.86R
GRAFTON        MOCLDY    57  48  72 NW14      29.88F
CANDO          NOT AVBL
FORT TOTTEN      N/A     55  44  67 NW8       29.95S
ROLLA          MOCLDY    52  45  76 NW22G30   29.93S
RUGBY          NOT AVBL
 ***** THE ABOVE OBSERVATIONS ARE NON NWS ARE NOT QUALITY
        CONTROLLED AND MAY MIS-REPORT RAIN FOR SNOW...
$$

 *****  OTHER OBSERVATIONS SOUTHEAST NORTH DAKOTA *****

CITY           SKY/WX    TMP DP  RH WIND       PRES   REMARKS
COOPERSTOWN    CLOUDY    54  48  82 NW18G29   29.93R
VALLEY CITY    LGT RAIN  57  46  67 NW23      29.94R
OAKES          NOT AVBL
GWINNER        MOCLDY    61  46  59 MISG      29.93F
SHEYENNE NWR     N/A     60  53  76 NW8       29.95S
BUFFALO        NOT AVBL
WYNDMERE         N/A     61  46  59 NW15        N/A
 ***** THE ABOVE OBSERVATIONS ARE NON NWS ARE NOT QUALITY
       CONTROLLED AND MAY MIS-REPORT RAIN FOR SNOW...
$$

  *****  WEATHER ACROSS NORTHERN MINNESOTA  *****

CITY           SKY/WX    TMP DP  RH WIND       PRES   REMARKS
FLAG ISLAND    CLOUDY    52  39  62 NW21      29.75S
WARROAD        CLOUDY    54  43  66 NW18G24   29.80R
ROSEAU         PTSUNNY   55  43  62 NW21G26   29.80R
HALLOCK        PTSUNNY   55  45  67 NW21G28   29.84R
THF RVR FALLS  LGT RAIN  52  48  86 NW17      29.85S
HALSTAD          N/A     59  46  62 NW17        N/A
FOSSTON        CLOUDY    54  46  76 W15       29.85S
BAUDETTE       NOT AVBL
WASKISH        CLOUDY    54  45  71 NW13      29.79R
CROOKSTON      CLOUDY    52  52 100 N20       29.86R
$$
  *****  WEATHER ACROSS CENTRAL AND WEST MINNESOTA  *****

CITY           SKY/WX    TMP DP  RH WIND       PRES   REMARKS
BEMIDJI        CLOUDY    52  43  71 NW21G26   29.82R
PARK RAPIDS    NOT AVBL
WADENA         CLOUDY    54  43  66 NW18G26   29.85S
DETROIT LAKES  CLOUDY    54  46  76 NW10      29.89R
MOORHEAD       PTSUNNY   57  48  72 N12       29.90S
FERGUS FALLS   PTSUNNY   57  48  72 NW15G21   29.89S
ELBOW LAKE     CLOUDY    56  47  71 W16G24    29.91S
MORRIS MN      FAIR      59  48  67 NW24      29.90F
STAPLES        CLOUDY    54  43  66 NW22G28   29.84R
WHEATON        PTSUNNY   57  48  72 NW18G25   29.95R
$$
  *****  WEATHER ELSEWHERE ACROSS MINNESOTA  *****

CITY           SKY/WX    TMP DP  RH WIND       PRES   REMARKS
DULUTH         LGT RAIN  54  51  90 NW12      29.72R
INTRNTL FALLS  CLOUDY    54  46  74 NW12G22   29.71R
ELY            LGT RAIN  50  48  93 W14G20    29.68R
CLOQUET        CLOUDY    57  45  62 W20G25    29.74R
BRAINERD       NOT AVBL
HIBBING        LGT RAIN  50  49  96 W7        29.74R
ALEXANDRIA     CLOUDY    56  48  74 NW21      29.89R
SAINT CLOUD    CLOUDY    60  48  64 NW17G23   29.82S
MINNEAPOLIS    LGT RAIN  62  49  62 NW18G29   29.82R
$$

  *****  WEATHER ACROSS SOUTH DAKOTA  *****

CITY           SKY/WX    TMP DP  RH WIND       PRES   REMARKS
SIOUX FALLS    PTSUNNY   64  47  53 NW18G31   29.98F
BROOKINGS      CLOUDY    56  48  74 NW24      29.97F
WATERTOWN      CLOUDY    55  45  68 NW21G28   29.97R
HURON          CLOUDY    60  44  55 N16       30.02S
SISSETON         N/A     59  47  64 NW22      29.94R
ABERDEEN       PTSUNNY   64  43  46 N15G23    29.99F
MITCHELL       PTSUNNY   66  42  41 NW22G30   30.04S
PIERRE         FAIR      68  38  33 NW18G33   30.05F
MOBRIDGE       PTSUNNY   66  37  34 NW22G33   30.02S
RAPID CITY     FAIR      68  30  24 NW18G33   30.14F
$$

  *****  SOME WEATHER IN NEARBY STATES *****

CITY           SKY/WX    TMP DP  RH WIND       PRES   REMARKS
GLASGOW MT     FAIR      65  33  30 NW13G26   30.17F
GREAT FALLS MT FAIR      72  45  37 CALM      30.17F
CHEYENNE WY    LGT RAIN  59  36  42 N10       30.26F
SCOTTSBLUFF NE FAIR      71  33  24 NW15G25   30.18F
OMAHA NE       FAIR      75  37  25 W23G30    30.00F
DES MOINES IA  FAIR      75  41  29 W23G35    29.94F
DAVENPORT IA   FAIR      73  42  32 W24G33    29.89S
CHICAGO IL     FAIR      76  42  29 W21G38    29.83R
EAU CLAIRE WI  PTSUNNY   63  48  58 W18G25    29.77S
LA CROSSE WI   PTSUNNY   66  48  52 W10       29.81S
$$

  *****  SOME NATIONAL WEATHER *****

CITY           SKY/WX    TMP DP  RH WIND       PRES   REMARKS
LA GUARDIA NY  CLOUDY    57  52  83 NE15      30.00R
RALEIGH NC     PTSUNNY   85  63  47 W5        29.95F
ATLANTA GA     PTSUNNY   80  67  64 S8        30.03F THUNDER
NEW ORLEANS LA CLOUDY    84  69  60 S9        30.02S
OKLAHOMA CITY  FAIR      87  43  21 VRB6      30.07F
ALBUQUERQUE NM FAIR      78  35  21 SW12G20   30.17F
SALT LAKE CITY FAIR      79  40  24 N9        30.12F
LOS ANGELES CA PTSUNNY   67  57  70 W7        29.93F
BOISE ID       FAIR      83  41  22 VRB3      30.08F
SEATTLE WA     CLOUDY    58  52  80 S7        30.04F
$$

*** WEATHER ACROSS MANITOBA...SASKATCHEWAN AND ONTARIO ***
                ***ONTARIO***

CITY           SKY/WX    TMP DP  RH WIND       PRES   REMARKS
GERALDTON      PTSUNNY   57  50  77 S7        29.54R
THUNDER BAY    LGT RAIN  55  54  94 SW8       29.57S
SIOUX LOOKOUT  CLOUDY    54  50  87 NW10G17   29.62R
TORONTO        PTSUNNY   77  46  33 W17G23    29.78R
BIG TROUT LK   LGT RAIN  46  45  93 NW9       29.59R
PICKLE LAKE    LGT RAIN  54  52  94 VRB9G18   29.56R
DRYDEN         CLOUDY    54  48  82 NW12      29.66R
KENORA         CLOUDY    50  41  71 NW9G20    29.74R
$$
                *** MANITOBA***

CITY           SKY/WX    TMP DP  RH WIND       PRES   REMARKS
BRANDON        PTSUNNY   54  43  66 NW23G29   29.93R
DAUPHIN        CLOUDY    50  43  76 N17       29.94S
ISLAND LAKE    CLOUDY    43  41  93 NW16G22   29.77R
PILOT MOUND      N/A     52  43  71 NW21G28     N/A
THE PAS        LGT RAIN  45  41  87 N9        30.02S
THOMPSON       DRIZZLE   41  37  87 N13G20    29.92R
WINNIPEG       CLOUDY    48  41  76 N21G26    29.85S
LYNN LAKE      CLOUDY    43  39  87 N15G24    30.09R
CHURCHILL      CLOUDY    36  34  93 N18       29.93S
GILLAM         CLOUDY    46  37  71 N15G22    29.82R
$$
                ***SASKATCHEWAN***

CITY           SKY/WX    TMP DP  RH WIND       PRES   REMARKS
ESTEVAN        PTSUNNY   61  37  41 NW23G35   30.05S
KINDERSLEY     SUNNY     63  32  31 VRB7      30.18F
LLOYDMINSTER   SUNNY     61  30  31 NE12      30.21F
PRINCE ALBERT  MOSUNNY   63  30  29 N24       30.12S
REGINA         MOSUNNY   63  32  31 NW29G36   30.09F
YORKTON        CLOUDY    55  39  54 N24       30.02R



USA.gov is the U.S. government's official web portal to all federal, state and local government web resources and services.